Time,TemperatureF,DewpointF,PressureIn,WindDirection,WindDirectionDegrees,WindSpeedMPH,WindSpeedGustMPH,Humidity,HourlyPrecipIn,Conditions,Clouds,dailyrainin,SoftwareType,DateUTC
2013-08-06 00:01:00,56.8,40.1,29.94,ESE,121,1.0,2.0,54,0.00,,,0.00,Weather View 32 v70,2013-08-06 04:01:00,
2013-08-06 00:02:00,57.4,40.7,29.94,ESE,114,2.0,2.0,54,0.00,,,0.00,Weather View 32 v70,2013-08-06 04:02:00,
2013-08-06 00:07:00,57.5,40.5,29.94,ENE,69,1.0,3.0,53,0.00,,,0.00,Weather View 32 v70,2013-08-06 04:07:00,
2013-08-06 00:12:00,57.0,39.8,29.94,North,1,1.0,3.0,53,0.00,,,0.00,Weather View 32 v70,2013-08-06 04:12:00,
2013-08-06 00:17:00,56.5,39.6,29.94,NNE,15,1.0,3.0,53,0.00,,,0.00,Weather View 32 v70,2013-08-06 04:17:00,
2013-08-06 00:22:00,56.6,40.1,29.94,NE,44,1.0,3.0,54,0.00,,,0.00,Weather View 32 v70,2013-08-06 04:22:00,
2013-08-06 00:27:00,56.6,39.8,29.94,ESE,114,1.0,3.0,53,0.00,,,0.00,Weather View 32 v70,2013-08-06 04:27:00,
2013-08-06 00:32:00,57.0,40.0,29.94,ENE,78,1.0,3.0,53,0.00,,,0.00,Weather View 32 v70,2013-08-06 04:32:00,
2013-08-06 00:37:00,56.5,39.4,29.94,North,351,2.0,3.0,53,0.00,,,0.00,Weather View 32 v70,2013-08-06 04:37:00,
2013-08-06 00:42:00,55.7,39.2,29.94,North,6,2.0,3.0,54,0.00,,,0.00,Weather View 32 v70,2013-08-06 04:42:00,
2013-08-06 00:47:00,55.4,39.3,29.94,NNE,24,1.0,3.0,55,0.00,,,0.00,Weather View 32 v70,2013-08-06 04:47:00,
2013-08-06 00:52:00,55.7,39.5,29.97,ESE,104,1.0,3.0,54,0.00,,,0.00,Weather View 32 v70,2013-08-06 04:52:00,
2013-08-06 00:57:00,56.1,39.6,29.94,ENE,71,0.0,3.0,54,0.00,,,0.00,Weather View 32 v70,2013-08-06 04:57:00,
2013-08-06 01:02:00,55.9,39.3,29.97,ENE,71,1.0,3.0,54,0.00,,,0.00,Weather View 32 v70,2013-08-06 05:02:00,
2013-08-06 01:07:00,55.6,39.0,29.91,North,9,2.0,2.0,54,0.00,,,0.00,Weather View 32 v70,2013-08-06 05:07:00,
2013-08-06 01:12:00,55.4,38.9,29.97,NNE,16,1.0,2.0,54,0.00,,,0.00,Weather View 32 v70,2013-08-06 05:12:00,
2013-08-06 01:17:00,55.6,39.1,29.97,NE,45,2.0,2.0,54,0.00,,,0.00,Weather View 32 v70,2013-08-06 05:17:00,
2013-08-06 01:22:00,55.2,38.7,29.94,North,1,1.0,2.0,54,0.00,,,0.00,Weather View 32 v70,2013-08-06 05:22:00,
2013-08-06 01:27:00,55.0,38.9,29.94,NE,39,1.0,2.0,55,0.00,,,0.00,Weather View 32 v70,2013-08-06 05:27:00,
2013-08-06 01:32:00,55.2,39.0,29.97,East,99,1.0,2.0,54,0.00,,,0.00,Weather View 32 v70,2013-08-06 05:32:00,
2013-08-06 01:37:00,55.4,38.8,29.97,NE,50,1.0,2.0,54,0.00,,,0.00,Weather View 32 v70,2013-08-06 05:37:00,
2013-08-06 01:42:00,55.4,38.5,29.94,NE,35,1.0,2.0,53,0.00,,,0.00,Weather View 32 v70,2013-08-06 05:42:00,
2013-08-06 01:47:00,55.2,38.3,29.94,ENE,66,1.0,2.0,53,0.00,,,0.00,Weather View 32 v70,2013-08-06 05:47:00,
2013-08-06 01:52:00,55.2,38.4,29.94,ENE,72,0.0,2.0,53,0.00,,,0.00,Weather View 32 v70,2013-08-06 05:52:00,
2013-08-06 01:57:00,55.4,38.4,29.94,ENE,66,1.0,2.0,53,0.00,,,0.00,Weather View 32 v70,2013-08-06 05:57:00,
2013-08-06 02:02:00,55.7,38.7,29.94,ESE,118,1.0,2.0,53,0.00,,,0.00,Weather View 32 v70,2013-08-06 06:02:00,
2013-08-06 02:07:00,55.2,38.0,29.94,North,4,2.0,2.0,52,0.00,,,0.00,Weather View 32 v70,2013-08-06 06:07:00,
2013-08-06 02:12:00,54.3,37.7,29.94,North,358,1.0,2.0,54,0.00,,,0.00,Weather View 32 v70,2013-08-06 06:12:00,
2013-08-06 02:17:00,54.7,38.2,29.94,ENE,76,1.0,2.0,54,0.00,,,0.00,Weather View 32 v70,2013-08-06 06:17:00,
2013-08-06 02:22:00,54.8,38.4,29.91,NNE,12,1.0,2.0,54,0.00,,,0.00,Weather View 32 v70,2013-08-06 06:22:00,
2013-08-06 02:27:00,54.3,37.8,29.94,North,9,1.0,2.0,54,0.00,,,0.00,Weather View 32 v70,2013-08-06 06:27:00,
2013-08-06 02:32:00,53.9,37.6,29.97,North,352,1.0,2.0,54,0.00,,,0.00,Weather View 32 v70,2013-08-06 06:32:00,
2013-08-06 02:37:00,53.8,37.6,29.97,SE,133,1.0,2.0,54,0.00,,,0.00,Weather View 32 v70,2013-08-06 06:37:00,
2013-08-06 02:42:00,53.8,37.9,29.97,SSE,148,0.0,2.0,55,0.00,,,0.00,Weather View 32 v70,2013-08-06 06:42:00,
2013-08-06 02:47:00,54.5,38.4,29.97,NE,37,1.0,2.0,55,0.00,,,0.00,Weather View 32 v70,2013-08-06 06:47:00,
2013-08-06 02:52:00,53.9,37.3,29.94,NNE,25,1.0,2.0,53,0.00,,,0.00,Weather View 32 v70,2013-08-06 06:52:00,
2013-08-06 02:57:00,53.9,37.5,29.94,East,88,1.0,2.0,54,0.00,,,0.00,Weather View 32 v70,2013-08-06 06:57:00,
2013-08-06 03:02:00,53.9,37.6,29.94,North,10,1.0,2.0,54,0.00,,,0.00,Weather View 32 v70,2013-08-06 07:02:00,
2013-08-06 03:07:00,53.6,37.6,29.94,North,7,1.0,2.0,55,0.00,,,0.00,Weather View 32 v70,2013-08-06 07:07:00,
2013-08-06 03:12:00,53.2,37.6,29.94,ENE,66,0.0,2.0,55,0.00,,,0.00,Weather View 32 v70,2013-08-06 07:12:00,
2013-08-06 03:17:00,53.6,37.8,29.94,NNE,12,2.0,2.0,55,0.00,,,0.00,Weather View 32 v70,2013-08-06 07:17:00,
2013-08-06 03:22:00,53.0,37.2,29.97,North,8,1.0,2.0,55,0.00,,,0.00,Weather View 32 v70,2013-08-06 07:22:00,
2013-08-06 03:27:00,53.2,37.4,29.94,NNE,32,0.0,2.0,55,0.00,,,0.00,Weather View 32 v70,2013-08-06 07:27:00,
2013-08-06 03:32:00,53.2,37.2,29.97,NE,34,1.0,2.0,55,0.00,,,0.00,Weather View 32 v70,2013-08-06 07:32:00,
2013-08-06 03:37:00,53.2,37.0,29.97,East,96,1.0,2.0,54,0.00,,,0.00,Weather View 32 v70,2013-08-06 07:37:00,
2013-08-06 03:42:00,53.4,37.2,29.94,NE,35,1.0,2.0,54,0.00,,,0.00,Weather View 32 v70,2013-08-06 07:42:00,
2013-08-06 03:47:00,52.7,36.3,29.94,NNW,347,1.0,2.0,54,0.00,,,0.00,Weather View 32 v70,2013-08-06 07:47:00,
2013-08-06 03:52:00,52.5,36.3,29.97,North,2,1.0,2.0,54,0.00,,,0.00,Weather View 32 v70,2013-08-06 07:52:00,
2013-08-06 03:57:00,52.5,36.4,29.97,North,9,1.0,2.0,54,0.00,,,0.00,Weather View 32 v70,2013-08-06 07:57:00,
2013-08-06 04:02:00,52.3,36.4,29.97,NNE,28,1.0,2.0,55,0.00,,,0.00,Weather View 32 v70,2013-08-06 08:02:00,
2013-08-06 04:07:00,52.3,36.4,29.97,ENE,61,0.0,2.0,55,0.00,,,0.00,Weather View 32 v70,2013-08-06 08:07:00,
2013-08-06 04:12:00,52.1,36.2,29.94,North,356,2.0,2.0,54,0.00,,,0.00,Weather View 32 v70,2013-08-06 08:12:00,
2013-08-06 04:17:00,52.1,36.2,30.00,East,94,1.0,2.0,55,0.00,,,0.00,Weather View 32 v70,2013-08-06 08:17:00,
2013-08-06 04:22:00,52.3,36.1,29.97,ENE,72,1.0,2.0,54,0.00,,,0.00,Weather View 32 v70,2013-08-06 08:22:00,
2013-08-06 04:27:00,52.3,35.9,30.00,North,6,1.0,2.0,54,0.00,,,0.00,Weather View 32 v70,2013-08-06 08:27:00,
2013-08-06 04:32:00,52.1,35.9,30.00,East,100,1.0,2.0,54,0.00,,,0.00,Weather View 32 v70,2013-08-06 08:32:00,
2013-08-06 04:37:00,52.1,35.7,29.97,ENE,72,0.0,2.0,54,0.00,,,0.00,Weather View 32 v70,2013-08-06 08:37:00,
2013-08-06 04:42:00,52.3,35.9,29.97,North,4,1.0,2.0,54,0.00,,,0.00,Weather View 32 v70,2013-08-06 08:42:00,
2013-08-06 04:47:00,51.8,35.4,29.97,NNE,21,1.0,2.0,53,0.00,,,0.00,Weather View 32 v70,2013-08-06 08:47:00,
2013-08-06 04:52:00,52.0,35.7,29.94,NE,46,1.0,2.0,54,0.00,,,0.00,Weather View 32 v70,2013-08-06 08:52:00,
2013-08-06 04:57:00,52.0,35.7,29.97,NNE,31,0.0,2.0,54,0.00,,,0.00,Weather View 32 v70,2013-08-06 08:57:00,
2013-08-06 05:02:00,52.0,35.5,29.97,ENE,57,1.0,2.0,53,0.00,,,0.00,Weather View 32 v70,2013-08-06 09:02:00,
2013-08-06 05:07:00,51.8,35.2,30.00,NW,323,0.0,2.0,53,0.00,,,0.00,Weather View 32 v70,2013-08-06 09:07:00,
2013-08-06 05:12:00,51.6,35.0,29.97,NW,315,0.0,2.0,53,0.00,,,0.00,Weather View 32 v70,2013-08-06 09:12:00,
2013-08-06 05:17:00,51.1,34.8,29.97,North,357,2.0,2.0,54,0.00,,,0.00,Weather View 32 v70,2013-08-06 09:17:00,
2013-08-06 05:22:00,50.9,34.9,29.97,North,10,0.0,2.0,54,0.00,,,0.00,Weather View 32 v70,2013-08-06 09:22:00,
2013-08-06 05:27:00,51.2,35.2,30.00,ENE,61,1.0,2.0,54,0.00,,,0.00,Weather View 32 v70,2013-08-06 09:27:00,
2013-08-06 05:32:00,51.2,35.1,29.97,NE,44,1.0,2.0,54,0.00,,,0.00,Weather View 32 v70,2013-08-06 09:32:00,
2013-08-06 05:37:00,51.4,35.0,29.97,NNE,22,1.0,2.0,53,0.00,,,0.00,Weather View 32 v70,2013-08-06 09:37:00,
2013-08-06 05:42:00,50.7,34.3,29.97,North,6,1.0,2.0,53,0.00,,,0.00,Weather View 32 v70,2013-08-06 09:42:00,
2013-08-06 05:47:00,50.7,34.7,29.97,East,86,0.0,2.0,54,0.00,,,0.00,Weather View 32 v70,2013-08-06 09:47:00,
2013-08-06 05:52:00,51.1,35.0,29.97,NE,53,1.0,2.0,54,0.00,,,0.00,Weather View 32 v70,2013-08-06 09:52:00,
2013-08-06 05:57:00,51.2,35.2,29.94,ENE,57,1.0,2.0,54,0.00,,,0.00,Weather View 32 v70,2013-08-06 09:57:00,
2013-08-06 06:02:00,51.4,35.2,29.97,NNE,27,1.0,2.0,54,0.00,,,0.00,Weather View 32 v70,2013-08-06 10:02:00,
2013-08-06 06:07:00,50.7,34.3,29.97,North,355,1.0,2.0,53,0.00,,,0.00,Weather View 32 v70,2013-08-06 10:07:00,
2013-08-06 06:12:00,50.5,34.6,29.97,North,10,1.0,2.0,54,0.00,,,0.00,Weather View 32 v70,2013-08-06 10:12:00,
2013-08-06 06:17:00,50.7,34.9,29.97,NE,53,1.0,2.0,55,0.00,,,0.00,Weather View 32 v70,2013-08-06 10:17:00,
2013-08-06 06:22:00,51.2,35.5,30.00,NE,47,1.0,2.0,55,0.00,,,0.00,Weather View 32 v70,2013-08-06 10:22:00,
2013-08-06 06:27:00,51.4,35.3,30.00,NNE,31,2.0,2.0,54,0.00,,,0.00,Weather View 32 v70,2013-08-06 10:27:00,
2013-08-06 06:32:00,51.8,35.4,29.97,NE,38,2.0,2.0,54,0.00,,,0.00,Weather View 32 v70,2013-08-06 10:32:00,
2013-08-06 06:37:00,52.3,35.8,30.00,ENE,73,0.0,2.0,53,0.00,,,0.00,Weather View 32 v70,2013-08-06 10:37:00,
2013-08-06 06:42:00,52.7,35.7,30.00,NE,40,0.0,2.0,52,0.00,,,0.00,Weather View 32 v70,2013-08-06 10:42:00,
2013-08-06 06:47:00,53.4,35.8,30.00,North,9,1.0,2.0,51,0.00,,,0.00,Weather View 32 v70,2013-08-06 10:47:00,
2013-08-06 06:52:00,53.9,36.0,30.03,East,93,0.0,2.0,51,0.00,,,0.00,Weather View 32 v70,2013-08-06 10:52:00,
2013-08-06 06:57:00,55.2,36.4,30.00,NNE,22,1.0,2.0,49,0.00,,,0.00,Weather View 32 v70,2013-08-06 10:57:00,
2013-08-06 07:02:00,55.7,35.9,30.00,NNE,12,1.0,2.0,47,0.00,,,0.00,Weather View 32 v70,2013-08-06 11:02:00,
2013-08-06 07:07:00,56.5,36.4,30.00,NNE,31,1.0,2.0,47,0.00,,,0.00,Weather View 32 v70,2013-08-06 11:07:00,
2013-08-06 07:12:00,56.6,36.0,30.03,North,349,1.0,2.0,46,0.00,,,0.00,Weather View 32 v70,2013-08-06 11:12:00,
2013-08-06 07:17:00,57.5,36.8,30.00,NE,44,1.0,2.0,46,0.00,,,0.00,Weather View 32 v70,2013-08-06 11:17:00,
2013-08-06 07:22:00,57.9,36.4,30.03,NNE,24,2.0,4.0,45,0.00,,,0.00,Weather View 32 v70,2013-08-06 11:22:00,
2013-08-06 07:27:00,58.6,37.1,29.97,NNE,12,1.0,4.0,45,0.00,,,0.00,Weather View 32 v70,2013-08-06 11:27:00,
2013-08-06 07:32:00,59.3,37.1,30.00,NNE,18,2.0,4.0,44,0.00,,,0.00,Weather View 32 v70,2013-08-06 11:32:00,
2013-08-06 07:37:00,60.2,37.5,30.09,NNE,30,0.0,4.0,43,0.00,,,0.00,Weather View 32 v70,2013-08-06 11:37:00,
2013-08-06 07:42:00,60.6,37.2,30.00,North,3,1.0,4.0,42,0.00,,,0.00,Weather View 32 v70,2013-08-06 11:42:00,
2013-08-06 07:47:00,61.9,38.2,30.00,East,99,0.0,4.0,42,0.00,,,0.00,Weather View 32 v70,2013-08-06 11:47:00,
2013-08-06 07:52:00,61.7,37.0,30.00,NNW,345,1.0,4.0,40,0.00,,,0.00,Weather View 32 v70,2013-08-06 11:52:00,
2013-08-06 07:57:00,63.1,38.3,30.00,NE,38,1.0,4.0,40,0.00,,,0.00,Weather View 32 v70,2013-08-06 11:57:00,
2013-08-06 08:02:00,63.3,38.1,29.97,ESE,106,1.0,4.0,39,0.00,,,0.00,Weather View 32 v70,2013-08-06 12:02:00,
2013-08-06 08:07:00,64.2,37.9,30.00,NNE,12,2.0,4.0,38,0.00,,,0.00,Weather View 32 v70,2013-08-06 12:07:00,
2013-08-06 08:12:00,64.7,37.5,29.97,North,1,2.0,4.0,37,0.00,,,0.00,Weather View 32 v70,2013-08-06 12:12:00,
2013-08-06 08:17:00,65.8,38.3,29.97,ENE,74,1.0,4.0,36,0.00,,,0.00,Weather View 32 v70,2013-08-06 12:17:00,
2013-08-06 08:22:00,66.5,38.6,30.00,NE,35,2.0,3.0,36,0.00,,,0.00,Weather View 32 v70,2013-08-06 12:22:00,
2013-08-06 08:27:00,65.8,37.8,30.03,North,0,1.0,3.0,36,0.00,,,0.00,Weather View 32 v70,2013-08-06 12:27:00,
2013-08-06 08:32:00,67.3,39.5,30.00,ENE,62,1.0,3.0,36,0.00,,,0.00,Weather View 32 v70,2013-08-06 12:32:00,
2013-08-06 08:37:00,68.0,39.1,30.00,ENE,60,1.0,3.0,35,0.00,,,0.00,Weather View 32 v70,2013-08-06 12:37:00,
2013-08-06 08:42:00,68.0,36.5,30.00,ESE,119,5.0,5.0,31,0.00,,,0.00,Weather View 32 v70,2013-08-06 12:42:00,
2013-08-06 08:47:00,69.4,40.4,30.03,NNE,32,1.0,6.0,35,0.00,,,0.00,Weather View 32 v70,2013-08-06 12:47:00,
2013-08-06 08:52:00,71.2,38.8,30.00,East,96,1.0,6.0,31,0.00,,,0.00,Weather View 32 v70,2013-08-06 12:52:00,
2013-08-06 08:57:00,70.5,38.5,30.00,NE,53,1.0,7.0,31,0.00,,,0.00,Weather View 32 v70,2013-08-06 12:57:00,
2013-08-06 09:02:00,70.3,37.8,30.00,SE,124,3.0,7.0,31,0.00,,,0.00,Weather View 32 v70,2013-08-06 13:02:00,
2013-08-06 09:07:00,69.6,37.4,30.03,East,85,4.0,7.0,31,0.00,,,0.00,Weather View 32 v70,2013-08-06 13:07:00,
2013-08-06 09:12:00,70.5,36.6,30.03,East,99,5.0,8.0,29,0.00,,,0.00,Weather View 32 v70,2013-08-06 13:12:00,
2013-08-06 09:17:00,69.8,36.5,30.00,ESE,103,6.0,8.0,30,0.00,,,0.00,Weather View 32 v70,2013-08-06 13:17:00,
2013-08-06 09:22:00,69.2,37.0,30.03,East,89,4.0,8.0,31,0.00,,,0.00,Weather View 32 v70,2013-08-06 13:22:00,
2013-08-06 09:27:00,71.9,40.0,30.00,East,80,2.0,8.0,32,0.00,,,0.00,Weather View 32 v70,2013-08-06 13:27:00,
2013-08-06 09:32:00,72.3,38.4,30.03,East,100,3.0,8.0,29,0.00,,,0.00,Weather View 32 v70,2013-08-06 13:32:00,
2013-08-06 09:37:00,73.6,39.4,30.03,ESE,116,3.0,8.0,29,0.00,,,0.00,Weather View 32 v70,2013-08-06 13:37:00,
2013-08-06 09:42:00,71.0,37.6,30.03,SE,131,5.0,8.0,30,0.00,,,0.00,Weather View 32 v70,2013-08-06 13:42:00,
2013-08-06 09:47:00,73.2,37.8,30.03,SW,215,1.0,8.0,28,0.00,,,0.00,Weather View 32 v70,2013-08-06 13:47:00,
2013-08-06 09:52:00,73.4,37.8,30.00,SSE,151,1.0,8.0,28,0.00,,,0.00,Weather View 32 v70,2013-08-06 13:52:00,
2013-08-06 09:57:00,71.8,36.6,30.03,South,169,4.0,8.0,28,0.00,,,0.00,Weather View 32 v70,2013-08-06 13:57:00,
2013-08-06 10:02:00,75.4,39.1,30.00,East,81,2.0,8.0,27,0.00,,,0.00,Weather View 32 v70,2013-08-06 14:02:00,
2013-08-06 10:07:00,76.4,38.2,30.00,ENE,67,4.0,8.0,25,0.00,,,0.00,Weather View 32 v70,2013-08-06 14:07:00,
2013-08-06 10:12:00,74.5,36.3,30.00,South,178,2.0,8.0,25,0.00,,,0.00,Weather View 32 v70,2013-08-06 14:12:00,
2013-08-06 10:17:00,78.1,37.6,30.03,East,85,4.0,8.0,23,0.00,,,0.00,Weather View 32 v70,2013-08-06 14:17:00,
2013-08-06 10:22:00,75.4,34.6,30.00,ESE,119,4.0,8.0,23,0.00,,,0.00,Weather View 32 v70,2013-08-06 14:22:00,
2013-08-06 10:27:00,73.7,34.2,30.00,SE,133,6.0,9.0,24,0.00,,,0.00,Weather View 32 v70,2013-08-06 14:27:00,
2013-08-06 10:32:00,74.5,34.1,30.03,SSE,150,3.0,9.0,23,0.00,,,0.00,Weather View 32 v70,2013-08-06 14:32:00,
2013-08-06 10:37:00,74.3,34.2,30.03,ESE,106,5.0,9.0,23,0.00,,,0.00,Weather View 32 v70,2013-08-06 14:37:00,
2013-08-06 10:42:00,74.1,34.8,30.00,East,89,2.0,10.0,24,0.00,,,0.00,Weather View 32 v70,2013-08-06 14:42:00,
2013-08-06 10:47:00,74.1,35.0,30.00,SE,141,6.0,10.0,24,0.00,,,0.00,Weather View 32 v70,2013-08-06 14:47:00,
2013-08-06 10:52:00,74.8,34.7,30.06,South,183,2.0,10.0,23,0.00,,,0.00,Weather View 32 v70,2013-08-06 14:52:00,
2013-08-06 10:57:00,77.0,32.5,30.03,SE,143,4.0,10.0,20,0.00,,,0.00,Weather View 32 v70,2013-08-06 14:57:00,
2013-08-06 11:02:00,74.8,29.3,29.97,South,178,2.0,10.0,19,0.00,,,0.00,Weather View 32 v70,2013-08-06 15:02:00,
2013-08-06 11:07:00,77.3,29.7,30.03,ESE,122,3.0,10.0,18,0.00,,,0.00,Weather View 32 v70,2013-08-06 15:07:00,
2013-08-06 11:12:00,77.0,30.4,30.03,ESE,122,3.0,10.0,18,0.00,,,0.00,Weather View 32 v70,2013-08-06 15:12:00,
2013-08-06 11:17:00,77.5,28.1,30.03,SE,143,3.0,10.0,16,0.00,,,0.00,Weather View 32 v70,2013-08-06 15:17:00,
2013-08-06 11:22:00,76.6,28.6,30.03,East,86,5.0,10.0,17,0.00,,,0.00,Weather View 32 v70,2013-08-06 15:22:00,
2013-08-06 11:27:00,75.2,28.0,30.00,SSW,205,5.0,10.0,18,0.00,,,0.00,Weather View 32 v70,2013-08-06 15:27:00,
2013-08-06 11:32:00,78.1,29.9,30.00,SE,144,3.0,10.0,17,0.00,,,0.00,Weather View 32 v70,2013-08-06 15:32:00,
2013-08-06 11:37:00,76.3,30.1,30.06,SW,222,3.0,10.0,18,0.00,,,0.00,Weather View 32 v70,2013-08-06 15:37:00,
2013-08-06 11:42:00,80.0,30.8,30.00,SE,127,3.0,10.0,17,0.00,,,0.00,Weather View 32 v70,2013-08-06 15:42:00,
2013-08-06 11:47:00,77.3,29.6,30.00,SSW,207,3.0,9.0,17,0.00,,,0.00,Weather View 32 v70,2013-08-06 15:47:00,
2013-08-06 11:52:00,77.7,27.7,30.00,ENE,74,5.0,10.0,16,0.00,,,0.00,Weather View 32 v70,2013-08-06 15:52:00,
2013-08-06 11:57:00,77.3,27.4,30.03,East,93,4.0,10.0,16,0.00,,,0.00,Weather View 32 v70,2013-08-06 15:57:00,
2013-08-06 12:02:00,76.3,31.5,30.03,SSW,212,4.0,10.0,20,0.00,,,0.00,Weather View 32 v70,2013-08-06 16:02:00,
2013-08-06 12:07:00,77.3,30.8,30.00,SW,231,3.0,10.0,18,0.00,,,0.00,Weather View 32 v70,2013-08-06 16:07:00,
2013-08-06 12:12:00,75.7,28.7,30.03,SW,216,4.0,10.0,18,0.00,,,0.00,Weather View 32 v70,2013-08-06 16:12:00,
2013-08-06 12:17:00,77.7,33.6,30.00,ESE,114,3.0,10.0,20,0.00,,,0.00,Weather View 32 v70,2013-08-06 16:17:00,
2013-08-06 12:22:00,78.1,32.3,30.00,SE,145,1.0,10.0,19,0.00,,,0.00,Weather View 32 v70,2013-08-06 16:22:00,
2013-08-06 12:27:00,79.3,31.6,30.03,SSW,206,2.0,10.0,18,0.00,,,0.00,Weather View 32 v70,2013-08-06 16:27:00,
2013-08-06 12:32:00,77.7,30.0,30.00,SSW,205,4.0,10.0,18,0.00,,,0.00,Weather View 32 v70,2013-08-06 16:32:00,
2013-08-06 12:37:00,76.4,29.1,30.00,SW,219,8.0,11.0,18,0.00,,,0.00,Weather View 32 v70,2013-08-06 16:37:00,
2013-08-06 12:42:00,78.4,27.6,30.00,West,268,3.0,11.0,16,0.00,,,0.00,Weather View 32 v70,2013-08-06 16:42:00,
2013-08-06 12:47:00,78.1,24.5,30.00,SSW,213,4.0,11.0,14,0.00,,,0.00,Weather View 32 v70,2013-08-06 16:47:00,
2013-08-06 12:52:00,78.1,24.5,30.03,SW,215,7.0,11.0,14,0.00,,,0.00,Weather View 32 v70,2013-08-06 16:52:00,
2013-08-06 12:57:00,77.3,27.5,30.00,SW,225,1.0,11.0,16,0.00,,,0.00,Weather View 32 v70,2013-08-06 16:57:00,
2013-08-06 13:02:00,77.0,28.4,30.00,SW,219,6.0,11.0,17,0.00,,,0.00,Weather View 32 v70,2013-08-06 17:02:00,
2013-08-06 13:07:00,77.0,30.4,30.03,SSW,206,6.0,11.0,18,0.00,,,0.00,Weather View 32 v70,2013-08-06 17:07:00,
2013-08-06 13:12:00,75.7,28.8,30.00,SW,215,7.0,11.0,18,0.00,,,0.00,Weather View 32 v70,2013-08-06 17:12:00,
2013-08-06 13:17:00,75.9,29.0,30.00,SSE,164,7.0,11.0,18,0.00,,,0.00,Weather View 32 v70,2013-08-06 17:17:00,
2013-08-06 13:22:00,76.4,27.3,30.03,SW,223,8.0,11.0,16,0.00,,,0.00,Weather View 32 v70,2013-08-06 17:22:00,
2013-08-06 13:27:00,77.9,29.5,30.03,SE,140,5.0,11.0,17,0.00,,,0.00,Weather View 32 v70,2013-08-06 17:27:00,
2013-08-06 13:32:00,76.6,28.6,30.03,SE,144,5.0,11.0,17,0.00,,,0.00,Weather View 32 v70,2013-08-06 17:32:00,
2013-08-06 13:37:00,77.7,31.5,30.00,SE,137,2.0,10.0,19,0.00,,,0.00,Weather View 32 v70,2013-08-06 17:37:00,
2013-08-06 13:42:00,75.7,32.1,30.00,SW,228,7.0,10.0,20,0.00,,,0.00,Weather View 32 v70,2013-08-06 17:42:00,
2013-08-06 13:47:00,76.3,29.8,30.00,South,176,6.0,10.0,18,0.00,,,0.00,Weather View 32 v70,2013-08-06 17:47:00,
2013-08-06 13:52:00,77.3,33.7,30.03,ESE,114,6.0,11.0,21,0.00,,,0.00,Weather View 32 v70,2013-08-06 17:52:00,
2013-08-06 13:57:00,76.8,30.5,30.00,ESE,120,7.0,11.0,18,0.00,,,0.00,Weather View 32 v70,2013-08-06 17:57:00,
2013-08-06 14:02:00,77.5,33.8,30.06,SE,143,3.0,11.0,21,0.00,,,0.00,Weather View 32 v70,2013-08-06 18:02:00,
2013-08-06 14:07:00,77.7,33.1,30.00,SW,231,7.0,11.0,20,0.00,,,0.00,Weather View 32 v70,2013-08-06 18:07:00,
2013-08-06 14:12:00,77.2,34.6,30.09,SSW,206,3.0,11.0,21,0.00,,,0.00,Weather View 32 v70,2013-08-06 18:12:00,
2013-08-06 14:17:00,76.4,32.4,30.03,SW,215,6.0,11.0,20,0.00,,,0.00,Weather View 32 v70,2013-08-06 18:17:00,
2013-08-06 14:22:00,78.1,32.5,30.06,SW,229,6.0,11.0,19,0.00,,,0.00,Weather View 32 v70,2013-08-06 18:22:00,
2013-08-06 14:27:00,75.2,32.7,30.03,SSW,205,6.0,13.0,21,0.00,,,0.00,Weather View 32 v70,2013-08-06 18:27:00,
2013-08-06 14:32:00,76.4,33.7,30.00,SSW,200,2.0,13.0,21,0.00,,,0.00,Weather View 32 v70,2013-08-06 18:32:00,
2013-08-06 14:37:00,78.4,33.9,30.00,SE,136,4.0,13.0,20,0.00,,,0.00,Weather View 32 v70,2013-08-06 18:37:00,
2013-08-06 14:42:00,78.2,31.8,30.03,SW,233,3.0,13.0,19,0.00,,,0.00,Weather View 32 v70,2013-08-06 18:42:00,
2013-08-06 14:47:00,76.4,30.6,30.03,SW,220,8.0,13.0,19,0.00,,,0.00,Weather View 32 v70,2013-08-06 18:47:00,
2013-08-06 14:52:00,78.1,32.9,30.03,SSE,167,2.0,13.0,19,0.00,,,0.00,Weather View 32 v70,2013-08-06 18:52:00,
2013-08-06 14:57:00,78.1,33.1,30.03,SW,229,5.0,13.0,20,0.00,,,0.00,Weather View 32 v70,2013-08-06 18:57:00,
2013-08-06 15:02:00,75.9,32.2,30.03,SSW,199,6.0,13.0,20,0.00,,,0.00,Weather View 32 v70,2013-08-06 19:02:00,
2013-08-06 15:07:00,75.4,34.1,30.03,SSW,193,3.0,13.0,22,0.00,,,0.00,Weather View 32 v70,2013-08-06 19:07:00,
2013-08-06 15:12:00,78.4,35.3,29.97,SE,145,3.0,13.0,21,0.00,,,0.00,Weather View 32 v70,2013-08-06 19:12:00,
2013-08-06 15:17:00,77.0,31.3,30.03,SSW,210,5.0,13.0,19,0.00,,,0.00,Weather View 32 v70,2013-08-06 19:17:00,
2013-08-06 15:22:00,75.5,33.0,30.03,SSW,200,5.0,13.0,21,0.00,,,0.00,Weather View 32 v70,2013-08-06 19:22:00,
2013-08-06 15:27:00,78.8,34.8,30.03,SE,142,3.0,12.0,21,0.00,,,0.00,Weather View 32 v70,2013-08-06 19:27:00,
2013-08-06 15:32:00,75.7,33.6,30.03,SSW,202,5.0,12.0,22,0.00,,,0.00,Weather View 32 v70,2013-08-06 19:32:00,
2013-08-06 15:37:00,77.5,34.3,30.03,WSW,249,3.0,12.0,21,0.00,,,0.00,Weather View 32 v70,2013-08-06 19:37:00,
2013-08-06 15:42:00,76.8,33.0,30.00,SSW,206,2.0,12.0,20,0.00,,,0.00,Weather View 32 v70,2013-08-06 19:42:00,
2013-08-06 15:47:00,77.0,34.7,30.00,South,174,1.0,12.0,22,0.00,,,0.00,Weather View 32 v70,2013-08-06 19:47:00,
2013-08-06 15:52:00,76.8,33.7,30.03,SW,217,5.0,12.0,21,0.00,,,0.00,Weather View 32 v70,2013-08-06 19:52:00,
2013-08-06 15:57:00,78.2,35.0,30.00,SW,230,4.0,11.0,21,0.00,,,0.00,Weather View 32 v70,2013-08-06 19:57:00,
2013-08-06 16:02:00,75.0,30.0,30.03,South,187,9.0,11.0,19,0.00,,,0.00,Weather View 32 v70,2013-08-06 20:02:00,
2013-08-06 16:07:00,77.5,34.8,30.00,SW,218,3.0,11.0,21,0.00,,,0.00,Weather View 32 v70,2013-08-06 20:07:00,
2013-08-06 16:12:00,77.9,37.5,30.03,SE,132,3.0,11.0,24,0.00,,,0.00,Weather View 32 v70,2013-08-06 20:12:00,
2013-08-06 16:17:00,77.7,36.3,30.03,SSW,204,4.0,11.0,23,0.00,,,0.00,Weather View 32 v70,2013-08-06 20:17:00,
2013-08-06 16:22:00,76.3,35.1,30.03,WSW,240,6.0,12.0,23,0.00,,,0.00,Weather View 32 v70,2013-08-06 20:22:00,
2013-08-06 16:27:00,75.5,34.7,30.03,SSW,207,5.0,12.0,23,0.00,,,0.00,Weather View 32 v70,2013-08-06 20:27:00,
2013-08-06 16:32:00,74.8,37.6,30.03,SSE,165,7.0,12.0,26,0.00,,,0.00,Weather View 32 v70,2013-08-06 20:32:00,
2013-08-06 16:37:00,76.6,37.4,30.03,South,172,3.0,12.0,24,0.00,,,0.00,Weather View 32 v70,2013-08-06 20:37:00,
2013-08-06 16:42:00,76.1,36.1,30.00,WSW,240,6.0,12.0,24,0.00,,,0.00,Weather View 32 v70,2013-08-06 20:42:00,
2013-08-06 16:47:00,76.4,36.6,30.00,WSW,237,5.0,12.0,24,0.00,,,0.00,Weather View 32 v70,2013-08-06 20:47:00,
2013-08-06 16:52:00,75.9,37.2,30.00,SSW,205,3.0,12.0,25,0.00,,,0.00,Weather View 32 v70,2013-08-06 20:52:00,
2013-08-06 16:57:00,75.0,34.6,30.03,SW,215,7.0,12.0,23,0.00,,,0.00,Weather View 32 v70,2013-08-06 20:57:00,
2013-08-06 17:02:00,77.3,37.6,30.00,SSW,192,3.0,12.0,24,0.00,,,0.00,Weather View 32 v70,2013-08-06 21:02:00,
2013-08-06 17:07:00,77.5,37.7,30.00,SE,135,2.0,12.0,24,0.00,,,0.00,Weather View 32 v70,2013-08-06 21:07:00,
2013-08-06 17:12:00,74.5,32.8,30.00,SSW,210,7.0,12.0,22,0.00,,,0.00,Weather View 32 v70,2013-08-06 21:12:00,
2013-08-06 17:17:00,74.5,36.3,30.00,South,190,5.0,12.0,25,0.00,,,0.00,Weather View 32 v70,2013-08-06 21:17:00,
2013-08-06 17:22:00,73.6,31.7,30.00,SSW,207,7.0,12.0,22,0.00,,,0.00,Weather View 32 v70,2013-08-06 21:22:00,
2013-08-06 17:27:00,75.5,33.5,30.00,SSW,210,3.0,12.0,22,0.00,,,0.00,Weather View 32 v70,2013-08-06 21:27:00,
2013-08-06 17:32:00,74.8,35.1,30.00,SSW,205,4.0,12.0,24,0.00,,,0.00,Weather View 32 v70,2013-08-06 21:32:00,
2013-08-06 17:37:00,75.2,32.2,30.00,SW,236,6.0,12.0,21,0.00,,,0.00,Weather View 32 v70,2013-08-06 21:37:00,
2013-08-06 17:42:00,74.5,33.5,30.06,SW,229,6.0,12.0,22,0.00,,,0.00,Weather View 32 v70,2013-08-06 21:42:00,
2013-08-06 17:47:00,74.6,35.3,30.00,SW,221,5.0,12.0,24,0.00,,,0.00,Weather View 32 v70,2013-08-06 21:47:00,
2013-08-06 17:52:00,73.7,36.7,30.06,South,188,3.0,12.0,26,0.00,,,0.00,Weather View 32 v70,2013-08-06 21:52:00,
2013-08-06 17:57:00,74.3,38.4,30.00,SE,139,1.0,12.0,27,0.00,,,0.00,Weather View 32 v70,2013-08-06 21:57:00,
2013-08-06 18:02:00,73.7,38.2,30.03,SW,229,4.0,12.0,28,0.00,,,0.00,Weather View 32 v70,2013-08-06 22:02:00,
2013-08-06 18:07:00,74.6,39.1,30.03,South,189,2.0,12.0,28,0.00,,,0.00,Weather View 32 v70,2013-08-06 22:07:00,
2013-08-06 18:12:00,73.6,36.9,30.00,SSE,156,3.0,12.0,26,0.00,,,0.00,Weather View 32 v70,2013-08-06 22:12:00,
2013-08-06 18:17:00,72.5,37.2,30.00,SSW,200,6.0,12.0,28,0.00,,,0.00,Weather View 32 v70,2013-08-06 22:17:00,
2013-08-06 18:22:00,72.7,38.1,30.03,SW,220,2.0,12.0,29,0.00,,,0.00,Weather View 32 v70,2013-08-06 22:22:00,
2013-08-06 18:27:00,73.4,38.0,30.00,ESE,122,3.0,10.0,28,0.00,,,0.00,Weather View 32 v70,2013-08-06 22:27:00,
2013-08-06 18:32:00,72.7,37.5,30.03,SSW,200,3.0,10.0,28,0.00,,,0.00,Weather View 32 v70,2013-08-06 22:32:00,
2013-08-06 18:37:00,73.0,39.1,30.03,SE,142,2.0,9.0,29,0.00,,,0.00,Weather View 32 v70,2013-08-06 22:37:00,
2013-08-06 18:42:00,72.7,38.8,30.00,SE,129,3.0,9.0,29,0.00,,,0.00,Weather View 32 v70,2013-08-06 22:42:00,
2013-08-06 18:47:00,71.6,39.5,30.00,SSW,196,4.0,9.0,31,0.00,,,0.00,Weather View 32 v70,2013-08-06 22:47:00,
2013-08-06 18:52:00,71.8,40.8,30.03,South,172,4.0,9.0,33,0.00,,,0.00,Weather View 32 v70,2013-08-06 22:52:00,
2013-08-06 18:57:00,71.6,41.3,30.03,SSW,203,5.0,10.0,34,0.00,,,0.00,Weather View 32 v70,2013-08-06 22:57:00,
2013-08-06 19:02:00,71.9,41.7,30.00,SSE,162,2.0,10.0,34,0.00,,,0.00,Weather View 32 v70,2013-08-06 23:02:00,
2013-08-06 19:07:00,70.9,41.5,30.03,SW,221,4.0,10.0,35,0.00,,,0.00,Weather View 32 v70,2013-08-06 23:07:00,
2013-08-06 19:12:00,71.6,42.3,30.03,SE,143,2.0,10.0,35,0.00,,,0.00,Weather View 32 v70,2013-08-06 23:12:00,
2013-08-06 19:17:00,71.2,42.4,30.03,SE,139,4.0,10.0,35,0.00,,,0.00,Weather View 32 v70,2013-08-06 23:17:00,
2013-08-06 19:22:00,70.9,42.7,30.00,SE,125,3.0,10.0,36,0.00,,,0.00,Weather View 32 v70,2013-08-06 23:22:00,
2013-08-06 19:27:00,70.9,42.9,30.00,ESE,118,3.0,10.0,37,0.00,,,0.00,Weather View 32 v70,2013-08-06 23:27:00,
2013-08-06 19:32:00,71.4,43.0,30.00,SE,127,3.0,10.0,36,0.00,,,0.00,Weather View 32 v70,2013-08-06 23:32:00,
2013-08-06 19:37:00,70.7,43.3,30.03,SE,144,3.0,10.0,37,0.00,,,0.00,Weather View 32 v70,2013-08-06 23:37:00,
2013-08-06 19:42:00,70.0,44.1,30.03,SSE,162,4.0,10.0,40,0.00,,,0.00,Weather View 32 v70,2013-08-06 23:42:00,
2013-08-06 19:47:00,69.8,43.9,30.03,SSE,149,2.0,10.0,39,0.00,,,0.00,Weather View 32 v70,2013-08-06 23:47:00,
2013-08-06 19:52:00,69.8,43.3,30.03,SSE,149,1.0,10.0,39,0.00,,,0.00,Weather View 32 v70,2013-08-06 23:52:00,
2013-08-06 19:57:00,69.2,43.3,30.03,SSE,159,2.0,8.0,39,0.00,,,0.00,Weather View 32 v70,2013-08-06 23:57:00,
2013-08-06 20:02:00,69.4,43.7,30.03,SSE,152,2.0,8.0,40,0.00,,,0.00,Weather View 32 v70,2013-08-07 00:02:00,
2013-08-06 20:07:00,69.4,43.4,30.06,SSE,164,0.0,7.0,39,0.00,,,0.00,Weather View 32 v70,2013-08-07 00:07:00,
2013-08-06 20:12:00,69.4,44.2,30.03,East,92,0.0,5.0,40,0.00,,,0.00,Weather View 32 v70,2013-08-07 00:12:00,
2013-08-06 20:17:00,68.2,43.2,30.03,North,4,1.0,5.0,41,0.00,,,0.00,Weather View 32 v70,2013-08-07 00:17:00,
2013-08-06 20:22:00,68.2,43.6,30.03,NE,53,1.0,5.0,41,0.00,,,0.00,Weather View 32 v70,2013-08-07 00:22:00,
2013-08-06 20:27:00,68.0,43.7,30.06,NNE,18,1.0,5.0,42,0.00,,,0.00,Weather View 32 v70,2013-08-07 00:27:00,
2013-08-06 20:32:00,66.7,43.3,30.06,North,355,2.0,5.0,43,0.00,,,0.00,Weather View 32 v70,2013-08-07 00:32:00,
2013-08-06 20:37:00,65.8,43.9,30.09,North,7,1.0,5.0,45,0.00,,,0.00,Weather View 32 v70,2013-08-07 00:37:00,
2013-08-06 20:42:00,65.6,44.5,30.03,NNE,15,1.0,5.0,46,0.00,,,0.00,Weather View 32 v70,2013-08-07 00:42:00,
2013-08-06 20:47:00,66.2,44.7,30.06,East,97,1.0,4.0,46,0.00,,,0.00,Weather View 32 v70,2013-08-07 00:47:00,
2013-08-06 20:52:00,66.7,44.9,30.03,ENE,58,1.0,4.0,46,0.00,,,0.00,Weather View 32 v70,2013-08-07 00:52:00,
2013-08-06 20:57:00,66.4,44.7,30.06,NE,35,2.0,4.0,46,0.00,,,0.00,Weather View 32 v70,2013-08-07 00:57:00,
2013-08-06 21:02:00,65.8,44.5,30.03,NE,50,1.0,3.0,46,0.00,,,0.00,Weather View 32 v70,2013-08-07 01:02:00,
2013-08-06 21:07:00,65.6,44.6,30.03,NE,37,1.0,2.0,47,0.00,,,0.00,Weather View 32 v70,2013-08-07 01:07:00,
2013-08-06 21:12:00,65.3,44.7,30.03,North,6,1.0,2.0,47,0.00,,,0.00,Weather View 32 v70,2013-08-07 01:12:00,
2013-08-06 21:17:00,64.4,44.6,30.06,NNE,20,2.0,2.0,49,0.00,,,0.00,Weather View 32 v70,2013-08-07 01:17:00,
2013-08-06 21:22:00,63.3,44.6,30.06,North,2,1.0,2.0,51,0.00,,,0.00,Weather View 32 v70,2013-08-07 01:22:00,
2013-08-06 21:27:00,64.0,45.4,30.06,ENE,73,1.0,2.0,51,0.00,,,0.00,Weather View 32 v70,2013-08-07 01:27:00,
2013-08-06 21:32:00,63.5,45.0,30.03,North,7,2.0,2.0,51,0.00,,,0.00,Weather View 32 v70,2013-08-07 01:32:00,
2013-08-06 21:37:00,63.7,45.2,30.03,ENE,73,1.0,2.0,51,0.00,,,0.00,Weather View 32 v70,2013-08-07 01:37:00,
2013-08-06 21:42:00,64.0,45.3,30.06,NE,38,1.0,2.0,51,0.00,,,0.00,Weather View 32 v70,2013-08-07 01:42:00,
2013-08-06 21:47:00,63.7,45.0,30.03,North,352,1.0,2.0,51,0.00,,,0.00,Weather View 32 v70,2013-08-07 01:47:00,
2013-08-06 21:52:00,63.1,45.0,30.06,North,6,1.0,2.0,52,0.00,,,0.00,Weather View 32 v70,2013-08-07 01:52:00,
2013-08-06 21:57:00,63.1,45.2,30.06,NNE,12,1.0,2.0,52,0.00,,,0.00,Weather View 32 v70,2013-08-07 01:57:00,
2013-08-06 22:02:00,63.1,45.2,30.03,NE,39,1.0,2.0,52,0.00,,,0.00,Weather View 32 v70,2013-08-07 02:02:00,
2013-08-06 22:07:00,63.1,45.1,30.03,North,8,1.0,2.0,52,0.00,,,0.00,Weather View 32 v70,2013-08-07 02:07:00,
2013-08-06 22:12:00,62.9,45.0,30.06,NE,48,2.0,2.0,52,0.00,,,0.00,Weather View 32 v70,2013-08-07 02:12:00,
2013-08-06 22:17:00,62.9,45.1,30.06,NNE,31,2.0,2.0,52,0.00,,,0.00,Weather View 32 v70,2013-08-07 02:17:00,
2013-08-06 22:22:00,62.0,44.4,30.06,North,5,1.0,2.0,53,0.00,,,0.00,Weather View 32 v70,2013-08-07 02:22:00,
2013-08-06 22:27:00,61.5,44.5,30.00,NNW,347,1.0,2.0,54,0.00,,,0.00,Weather View 32 v70,2013-08-07 02:27:00,
2013-08-06 22:32:00,61.9,45.0,30.03,ENE,61,1.0,2.0,54,0.00,,,0.00,Weather View 32 v70,2013-08-07 02:32:00,
2013-08-06 22:37:00,61.9,44.8,30.03,NNE,23,1.0,2.0,54,0.00,,,0.00,Weather View 32 v70,2013-08-07 02:37:00,
2013-08-06 22:42:00,61.3,44.3,30.06,North,8,2.0,2.0,54,0.00,,,0.00,Weather View 32 v70,2013-08-07 02:42:00,
2013-08-06 22:47:00,60.6,44.4,30.06,North,4,1.0,2.0,55,0.00,,,0.00,Weather View 32 v70,2013-08-07 02:47:00,
2013-08-06 22:52:00,60.8,44.7,30.06,NE,35,1.0,2.0,55,0.00,,,0.00,Weather View 32 v70,2013-08-07 02:52:00,
2013-08-06 22:57:00,61.1,44.8,30.03,NNE,27,1.0,2.0,55,0.00,,,0.00,Weather View 32 v70,2013-08-07 02:57:00,
2013-08-06 23:02:00,61.3,44.7,30.06,East,88,1.0,2.0,55,0.00,,,0.00,Weather View 32 v70,2013-08-07 03:02:00,
2013-08-06 23:07:00,61.7,44.9,30.06,ENE,73,0.0,2.0,54,0.00,,,0.00,Weather View 32 v70,2013-08-07 03:07:00,
2013-08-06 23:12:00,61.3,44.2,30.06,North,3,1.0,2.0,53,0.00,,,0.00,Weather View 32 v70,2013-08-07 03:12:00,
2013-08-06 23:17:00,61.3,44.6,30.03,ENE,63,1.0,2.0,54,0.00,,,0.00,Weather View 32 v70,2013-08-07 03:17:00,
2013-08-06 23:22:00,61.3,44.4,30.03,NNE,22,1.0,2.0,54,0.00,,,0.00,Weather View 32 v70,2013-08-07 03:22:00,
2013-08-06 23:27:00,60.6,43.7,30.03,North,6,1.0,2.0,54,0.00,,,0.00,Weather View 32 v70,2013-08-07 03:27:00,
2013-08-06 23:32:00,60.2,44.1,30.06,North,6,1.0,2.0,55,0.00,,,0.00,Weather View 32 v70,2013-08-07 03:32:00,
2013-08-06 23:37:00,60.4,44.7,30.06,NE,39,1.0,2.0,56,0.00,,,0.00,Weather View 32 v70,2013-08-07 03:37:00,
2013-08-06 23:42:00,60.4,44.5,30.09,NNE,31,0.0,2.0,56,0.00,,,0.00,Weather View 32 v70,2013-08-07 03:42:00,
2013-08-06 23:47:00,60.4,44.3,30.06,NNE,18,1.0,2.0,55,0.00,,,0.00,Weather View 32 v70,2013-08-07 03:47:00,
2013-08-06 23:52:00,60.4,44.3,30.03,NNE,33,1.0,2.0,55,0.00,,,0.00,Weather View 32 v70,2013-08-07 03:52:00,
2013-08-06 23:57:00,60.1,44.1,30.06,NNE,30,1.0,2.0,56,0.00,,,0.00,Weather View 32 v70,2013-08-07 03:57:00,